Regional Weather Roundup
Issued by NWS Eureka, CA

Current Version | Previous Version | Text Only | Print | Product List | Glossary On
Versions: 1 2 3 4 5 6 7 8 9 10 11 12 13 14 15 16 17 18 19 20 21 22 23 24 25 26 27 28 29 30 31 32 33 34 35 36 37 38 39 40 41 42 43 44 45 46 47 48
000 ASUS46 KEKA 041212 RWREKA Eureka Area Weather Roundup National Weather Service Eureka CA 400 AM PST THU MAR 04 2021 Note: "fair" indicates few or no clouds below 12,000 feet with no significant weather and/or obstructions to visibility. Southwest Oregon... CITY SKY/WX TMP DP RH WIND PRES REMARKS MEDFORD MOCLDY 38 30 73 W5 29.93R KLAMATH FALLS CLEAR 33 21 61 S13 29.96R NORTH BEND CLOUDY 43 39 86 S9 29.94R ROSEBURG CLOUDY 39 35 86 SE6 29.92S SEXTON SUMMIT NOT AVBL BROOKINGS CLOUDY 47 38 71 SE12 30.00R Northwest California... CITY SKY/WX TMP DP RH WIND PRES REMARKS CRESCENT CITY CLOUDY 48 38 68 S18G26 30.01S MCKINLEYVILLE MOCLDY 40 38 93 E7 30.03R EUREKA MOCLDY 42 50 100 S5 30.04R FORTUNA NOT AVBL WEAVERVILLE NOT AVBL TRINITY CENTER NOT AVBL UKIAH CLEAR 37 31 78 CALM 30.12R North & Central California... CITY SKY/WX TMP DP RH WIND PRES REMARKS YREKA MOCLDY 28 19 69 NE7 29.97R MOUNT SHASTA MOCLDY 40 30 67 SE5 30.03R REDDING CLEAR 47 38 71 S5 30.08R RED BLUFF CLEAR 43 37 79 S9 30.09R CHICO N/A 45 37 76 SE10 30.11R YUBA CITY CLEAR 46 38 73 SE13 30.13R SACRAMENTO CLEAR 46 40 79 S9 30.14R SANTA ROSA CLOUDY 47 42 83 CALM 30.14S NAPA CLEAR 41 37 86 NW5 30.15R TRAVIS AFB NOT AVBL SAN FRANCISCO PTCLDY 49 41 74 CALM 30.14S OAKLAND PTCLDY 52 41 66 SW8 30.16R STOCKTON NOT AVBL SALINAS NOT AVBL MONTEREY CLOUDY 49 44 83 CALM 30.16R $$

USA.gov is the U.S. government's official web portal to all federal, state and local government web resources and services.